Powrót do katalogu

COSMOS 2251 DEB

AktywnyLEO
NORAD 33757·DEBRIS·🇷🇺 Russia

Wystrzelony Jun 16, 1993 z Plesetsk Cosmodrome

Loading…

Następne Przeloty (najbliższe 24 godziny)

TLE

ŚwieżeSource: Space-Track

Epoka: Sep 14, 2026, 05:57 UTC

1 33757U 93036E   26257.24809866  .00000054  00000-0  29270-4 0  9994
2 33757  74.0376 180.6369 0013955 134.7194  17.4274 14.32637480919416

Śledź COSMOS 2251 DEB w czasie rzeczywistym z AllMySat

Download on the App Store